Location: ??
(35.5052°N, 139.7262°E)
Time: 01:33:41
(UTC+00:00)

Cosmos 1932 - Pass Details

Date: 24 October 2021
Orbit: 943 x 987 km, 65.0° (Epoch: 01 December)

Event Time Altitude Azimuth Distance (km) Brightness Sun altitude
Rises 10:46:27 0° 326° (NW) 3,618 8.0 -35.5°
Reaches altitude 10° 10:49:02 10° 322° (NW) 2,674 7.3 -36.0°
Enters shadow 10:53:26 43° 294° (WNW) 1,313 5.4 -36.8°
